RH
33 39 26 27 86 77 81 91 93 94 97 98 98 99 98 98 98 97 95 95 94 92 92 91 88 74 83 77 81 78 74 73
51 52 79 77 92 90 86 94 96 98 99 98 99 98 99 99 98 96 96 94 94 91 94 92 82 75 80 79 77 75 76 71
43 41 70 98 98 96 96 96 98 97 95 97 99 98 99 98 98 97 96 95 91 90 87 85 84 85 81 77 76 79 75 66
43 44 51 73 95 98 96 98 98 98 97 97 99 99 99 100 99 99 98 97 94 91 89 88 86 81 86 81 77 73 81 76
22 30 43 60 70 97 96 95 96 97 97 98 98 98 98 98 96 97 99 98 98 97 94 91 86 80 79 77 74 74 72 76
23 23 25 45 57 66 74 97 97 97 98 98 99 98 95 98 98 98 98 99 97 96 95 92 88 81 82 80 77 72 75 75
22 26 25 25 32 45 54 75 94 98 98 98 99 99 98 99 98 99 98 97 97 97 95 95 94 84 81 82 74 70 74 72
22 26 24 26 26 27 31 43 42 95 98 98 98 98 98 98 98 97 98 98 98 97 96 97 96 94 80 81 78 74 74 74
33 36 32 27 27 28 29 29 33 61 98 97 97 96 98 97 96 98 96 95 94 92 94 92 92 94 93 86 83 79 76 77
44 40 44 47 48 47 53 58 55 49 84 94 96 96 96 96 96 94 95 93 93 92 93 91 89 90 92 91 88 83 76 78
45 47 54 59 60 66 71 77 74 72 69 64 78 88 94 94 95 96 95 95 92 91 93 91 87 88 87 88 88 84 81 83
46 52 54 66 69 74 77 84 87 88 89 84 85 93 95 95 97 97 97 96 96 93 90 90 88 89 89 91 90 90 89 89
51 54 54 54 64 71 76 84 90 91 92 92 95 96 98 99 97 95 95 97 96 94 93 94 91 90 89 90 91 90 86 86
56 59 67 71 77 72 75 81 88 92 93 94 96 99 100 100 99 98 99 98 99 96 94 94 92 91 92 91 91 90 89 89
65 75 77 76 81 74 74 81 89 92 94 92 98 99 98 98 99 99 99 98 99 100 100 100 100 99 94 94 96 96 96 100
78 80 82 79 80 74 78 85 91 95 97 97 97 96 99 98 99 98 97 98 98 100 100 100 98 98 96 98 98 98 99 99
82 81 81 78 73 79 79 89 92 95 96 96 95 96 97 96 96 97 98 98 98 98 98 98 98 97 96 97 96 97 97 97
94 88 85 78 78 80 90 89 92 93 95 95 96 97 99 99 99 99 99 99 98 98 98 98 97 97 97 96 93 94 95 94
80 77 74 72 73 87 90 92 92 95 97 97 98 100 100 100 100 100 100 100 100 99 99 98 98 96 97 96 95 95 95 94
Wind_Speed
10 12 8 7 9 16 18 16 15 15 10 8 7 8 8 7 7 10 15 12 15 13 10 11 11 10 9 9 11 8 10 11
9 15 15 7 5 9 15 16 13 10 8 8 5 7 5 6 7 12 14 14 17 14 12 13 12 13 13 12 13 14 10 11
16 19 16 15 10 6 3 5 9 9 8 6 2 6 4 5 5 8 12 13 17 17 18 16 14 9 12 13 15 10 8 11
15 17 14 11 10 9 7 7 3 1 7 6 3 4 4 2 4 4 7 10 13 16 16 16 15 13 12 16 16 17 13 8
11 12 12 11 10 7 4 3 1 1 1 4 6 7 5 4 7 6 6 7 9 14 12 16 18 15 15 15 14 13 13 15
7 7 6 6 7 6 6 1 4 4 6 4 4 5 3 3 5 9 10 9 8 8 14 14 14 14 16 17 17 16 12 12
5 3 3 4 4 3 2 2 6 6 7 6 6 7 6 5 7 7 7 7 9 12 9 10 11 15 17 16 17 17 15 12
12 13 12 5 5 4 4 4 5 7 8 8 11 12 10 9 9 8 7 6 7 12 14 13 11 11 13 18 17 17 17 15
15 16 13 14 14 7 1 7 7 4 6 8 10 12 9 9 9 7 7 9 10 14 15 15 15 15 11 12 13 13 16 14
7 8 8 8 9 9 8 7 6 7 9 9 11 12 12 11 13 11 9 10 9 11 14 16 15 17 17 16 12 13 14 16
6 6 5 6 7 7 7 6 6 8 10 11 11 13 14 14 10 11 11 10 10 12 14 15 15 15 15 16 14 15 15 11
9 4 7 9 8 7 7 6 6 7 7 6 8 10 11 10 10 10 10 9 11 13 15 17 19 19 18 16 16 15 16 16
12 13 15 16 12 6 7 7 6 7 6 5 6 6 5 7 10 11 11 12 11 13 14 13 15 15 18 20 19 17 18 18
19 16 14 13 10 7 6 6 6 6 6 6 6 6 5 8 8 7 6 7 8 10 13 16 15 17 19 20 20 18 18 17
18 15 14 13 10 8 7 7 6 6 5 6 4 5 6 7 7 6 5 7 8 8 9 10 12 14 16 15 14 15 15 14
17 16 15 16 9 10 6 5 6 6 6 6 7 6 5 5 6 7 9 9 9 7 8 9 13 14 11 14 13 14 16 14
21 18 17 16 13 8 6 4 4 4 6 7 6 7 7 9 9 10 10 11 10 10 10 13 13 10 20 24 19 15 16 17
18 18 16 17 10 10 7 6 1 4 6 6 6 7 7 8 9 10 10 9 9 11 12 13 13 10 22 26 24 15 16 17
17 12 12 13 7 6 4 3 1 4 6 6 6 7 4 4 3 2 2 1 5 8 8 8 10 11 23 24 23 15 13 14
Wind_Direction
1 342 305 267 176 180 184 185 181 172 168 172 179 184 184 177 210 190 177 184 173 168 159 154 165 161 154 148 136 130 136 132
24 22 1 15 151 171 183 175 163 148 162 171 177 182 193 183 193 194 185 185 168 173 152 159 176 167 163 156 143 138 139 131
33 34 25 26 35 43 83 143 137 160 168 177 189 162 175 191 182 218 190 196 182 174 160 164 169 166 159 161 151 140 140 157
19 23 28 44 51 37 38 32 3 134 166 127 105 70 65 114 176 177 211 204 193 178 174 171 172 170 173 170 167 165 162 178
29 29 29 22 13 21 64 83 260 81 276 253 193 187 173 182 195 165 212 209 220 183 173 185 178 169 181 176 173 175 167 173
15 19 22 5 24 40 39 268 238 215 212 237 262 266 178 181 197 182 178 175 210 214 178 186 188 179 175 172 177 176 178 170
3 334 1 343 323 21 16 165 245 216 191 212 232 262 262 193 200 204 201 183 181 195 194 203 208 182 182 180 181 180 176 179
0 0 342 330 313 314 284 257 290 226 208 199 213 217 215 238 204 197 191 199 191 196 192 192 205 186 208 177 184 175 182 180
2 355 353 344 339 347 23 328 319 246 238 238 228 224 216 214 204 199 208 209 206 186 191 194 190 176 206 234 177 180 180 183
346 349 343 342 347 343 347 317 294 273 240 214 231 232 225 214 209 204 196 203 211 204 200 199 191 188 199 187 195 191 186 181
327 315 322 314 306 291 304 298 286 285 270 247 240 232 222 219 209 205 201 201 199 203 202 203 200 193 191 199 198 184 179 192
329 310 301 280 275 276 276 274 289 303 303 285 249 235 230 223 205 204 199 189 191 201 207 205 198 195 188 190 191 190 183 179
316 310 309 304 276 269 277 285 306 299 292 306 274 234 223 224 224 215 204 202 201 199 194 202 204 202 194 190 190 183 185 178
321 316 304 294 279 276 270 283 293 293 294 305 308 285 252 240 240 243 216 196 206 203 198 195 203 196 192 193 186 183 180 178
309 307 307 302 277 275 290 307 309 281 303 314 308 287 275 259 265 264 229 214 206 195 200 190 186 188 189 188 175 176 164 154
318 315 314 307 284 273 285 313 325 327 307 301 289 288 271 258 242 245 243 224 213 190 182 183 177 172 176 162 158 151 149 148
311 311 315 314 310 290 264 273 295 320 298 290 299 305 296 286 274 260 239 221 199 180 181 173 175 188 169 159 154 155 153 152
301 292 283 284 258 271 217 243 271 306 311 316 322 316 298 286 274 253 235 210 183 183 180 178 180 168 165 157 155 151 149 149
294 281 276 271 254 240 229 217 336 332 315 311 314 314 315 317 355 354 8 80 167 159 157 156 144 150 147 138 134 130 127 136